sat.trackr.live / text

‹ back to catalog

FLYLAB2

NORAD 68503 · 2026-067CR

PAYLOAD ACTIVE UNKNOWN

§ Identity

Operator
Country
FR
Launch date
2026-03-30
Launch site
AFWTR
Launch vehicle
Mass (kg)
RCS (m²)

External: N2YO · Heavens-Above · Gunter

§ Orbital elements

Epoch: 2026-09-18T15:09:50.395392Z

Period
96.36 min
Inclination
97.7672°
Eccentricity
0.0006401
Mean motion
14.94420561 rev/d
Perigee alt
579.7 km
Apogee alt
588.6 km
Semi-major
6,962.3 km
B*
1.8735e-4
RAAN
218.2409°
Arg perigee
131.1686°
Mean anomaly
229.0087°
Rev number
2,564

§ Raw data

FLYLAB21 68503U 26067CR  26261.63183328  .00001962  00000+0  18735-3 0  99982 68503  97.7672 218.2409 0006401 131.1686 229.0087 14.94420561 25646

JSON: /api/v1/satellites/68503 · /tle

For live sub-satellite position, see the globe view (requires WebGL).

§ Visibility from observer

Set your observer location to see the next 7 days of passes ≥ 10°. The values pass through the URL so the page stays shareable.

No JS? Fill the form by hand. The geolocation button needs JavaScript.